Stations météo

réclame
Mon MeteoGroup
Vlissingen, Pays-Bas (6310): Température de l'air & dewpoint: 13.11.2017 18:00:00 - 19.11.2017 18:00:00 (CET)Vlissingen, Pays-Bas (6310): Température de l'air 5cm: 13.11.2017 18:00:00 - 19.11.2017 18:00:00 (CET)Vlissingen, Pays-Bas (6310): Vitesse du vent & gusts: 13.11.2017 18:00:00 - 19.11.2017 18:00:00 (CET)Vlissingen, Pays-Bas (6310): Direction du vent: 13.11.2017 18:00:00 - 19.11.2017 18:00:00 (CET)Vlissingen, Pays-Bas (6310): reduced air pressure: 13.11.2017 18:00:00 - 19.11.2017 18:00:00 (CET)Vlissingen, Pays-Bas (6310): visibility: 13.11.2017 18:00:00 - 19.11.2017 18:00:00 (CET)Vlissingen, Pays-Bas (6310): Quantités de précipitations: 13.11.2017 18:00:00 - 19.11.2017 18:00:00 (CET)
Date & Time tt [°C] td [°C] tt 5cm [°C] ff [km/h] ff [knt] fx [km/h] fx [knt] dd ppp [hPa] vv [km] rr [mm]
19.11.2017 18:00:00 8,4 2,9 7,5 22 12 32 18 WNW 1022,0 10 0,0
19.11.2017 17:00:00 8,5 2,6 7,5 18 10 36 19 WNW 1021,7 10 0,0
19.11.2017 16:00:00 8,4 2,5 7,3 22 12 - - WNW 1021,5 10 0,0
19.11.2017 15:00:00 8,8 3,3 8,2 26 14 36 19 NW 1021,3 10 0,0
19.11.2017 14:00:00 9,3 3,4 8,7 26 14 40 21 NW 1021,2 10 0,0
19.11.2017 13:00:00 9,2 3,4 8,9 26 14 - - NW 1021,2 10 0,0
19.11.2017 12:00:00 9,2 3,5 9,1 29 16 47 25 NW 1020,9 10 0,0
19.11.2017 11:00:00 9,0 4,1 8,2 29 16 43 23 NW 1020,5 10 0,0
19.11.2017 10:00:00 8,6 3,9 8,2 24 13 - - WNW 1020,0 10 0,0
19.11.2017 09:00:00 7,6 3,1 6,7 21 11 32 18 NW 1019,6 10 0,0
19.11.2017 08:00:00 7,6 2,4 6,6 22 12 32 18 WNW 1018,9 10 0,0
19.11.2017 07:00:00 7,7 2,6 6,6 22 12 - - WNW 1018,5 10 0,0
19.11.2017 06:00:00 7,2 2,0 5,6 22 12 36 19 NW 1018,2 10 0,0
19.11.2017 05:00:00 6,8 3,9 6,1 24 13 36 19 NNW 1018,2 9 0,2
19.11.2017 04:00:00 7,0 1,8 5,8 22 12 - - NW 1017,8 10 0,0
19.11.2017 03:00:00 7,7 -0,4 6,1 21 11 32 18 NW 1017,7 10 0,0
19.11.2017 02:00:00 7,8 -0,5 6,6 29 16 47 25 NW 1017,7 10 0,0
19.11.2017 01:00:00 8,2 -0,2 6,9 35 19 - - NW 1017,4 10 0,0
19.11.2017 00:00:00 8,6 0,9 7,4 28 15 43 23 NW 1017,5 10 0,0
18.11.2017 23:00:00 8,5 2,7 7,3 26 14 36 19 NW 1017,4 10 0,0
18.11.2017 22:00:00 9,7 4,5 9,0 22 12 - - WNW 1017,3 10 0,0
18.11.2017 21:00:00 9,8 5,6 9,1 24 13 43 23 W 1017,3 10 0,0
18.11.2017 20:00:00 9,7 5,7 8,8 22 12 32 18 W 1017,6 10 0,0
18.11.2017 19:00:00 9,6 5,1 8,8 28 15 - - WNW 1017,9 10 0,0
18.11.2017 18:00:00 9,7 5,4 8,8 29 16 40 21 WNW 1018,2 10 0,0
18.11.2017 17:00:00 9,9 4,9 9,4 34 18 47 25 WNW 1018,5 10 0,0
18.11.2017 16:00:00 10,1 3,8 9,1 31 17 - - W 1018,8 10 0,0
18.11.2017 15:00:00 10,1 4,6 9,4 31 17 50 27 W 1019,2 10 0,0
18.11.2017 14:00:00 9,8 7,0 9,7 44 24 58 31 W 1019,3 10 0,0
18.11.2017 13:00:00 9,9 5,6 9,8 42 23 - - W 1019,9 10 0,0
18.11.2017 12:00:00 9,3 5,6 9,0 44 24 54 29 W 1020,5 10 0,0
18.11.2017 11:00:00 9,2 5,3 8,8 42 23 50 27 W 1020,9 10 0,0
18.11.2017 10:00:00 9,0 3,4 8,1 34 18 - - W 1021,3 10 0,0
18.11.2017 09:00:00 8,2 1,9 7,0 26 14 43 23 W 1021,9 10 0,0
18.11.2017 08:00:00 8,3 0,5 7,6 34 18 50 27 WNW 1021,9 10 0,0
18.11.2017 07:00:00 8,6 2,0 7,8 29 16 - - W 1021,9 10 0,0
18.11.2017 06:00:00 8,4 1,7 7,6 26 14 43 23 W 1022,2 10 0,0
18.11.2017 05:00:00 8,4 1,3 7,6 28 15 40 21 W 1022,9 10 0,0
18.11.2017 04:00:00 8,5 1,3 7,7 31 17 - - W 1023,6 10 0,0
18.11.2017 03:00:00 8,4 1,1 7,6 24 13 36 19 W 1024,4 10 0,0
18.11.2017 02:00:00 8,6 1,2 7,7 21 11 32 18 W 1024,8 10 0,0
18.11.2017 01:00:00 8,8 1,8 7,7 21 11 - - W 1025,4 10 0,0
18.11.2017 00:00:00 7,4 3,4 6,6 18 10 29 16 SW 1025,8 10 0,0
17.11.2017 23:00:00 8,6 0,8 7,2 15 8 29 16 W 1026,1 10 0,0
17.11.2017 22:00:00 8,4 0,9 6,2 15 8 - - WNW 1026,4 10 0,0
17.11.2017 21:00:00 7,4 0,8 5,3 13 7 18 10 WNW 1026,8 10 0,0
17.11.2017 20:00:00 7,6 1,2 4,5 11 6 18 10 W 1026,8 10 0,0
17.11.2017 19:00:00 7,1 0,8 4,1 8 4 - - WNW 1027,1 10 0,0
17.11.2017 18:00:00 7,8 1,9 4,9 8 4 11 6 WNW 1027,3 10 0,0
17.11.2017 17:00:00 8,1 3,2 6,2 8 4 11 6 NW 1027,4 10 0,0
17.11.2017 16:00:00 9,3 3,2 8,1 11 6 - - WNW 1027,5 10 0,0
17.11.2017 15:00:00 10,4 3,6 10,2 15 8 22 12 NNW 1027,5 10 0,0
17.11.2017 14:00:00 10,2 3,4 10,4 9 5 25 14 NW 1027,8 10 0,0
17.11.2017 13:00:00 9,9 5,0 8,0 9 5 - - W 1028,2 10 0,0
17.11.2017 12:00:00 9,5 5,1 9,1 11 6 14 8 SW 1028,5 10 0,0
17.11.2017 11:00:00 9,6 4,7 9,7 8 4 11 6 SW 1028,6 10 0,0
17.11.2017 10:00:00 9,0 3,8 5,9 4 2 - - NNE 1028,5 10 0,0
17.11.2017 09:00:00 7,3 3,4 3,6 8 4 7 4 NNW 1028,4 10 0,0
17.11.2017 08:00:00 6,5 4,1 3,5 4 2 7 4 N 1028,0 10 0,0
17.11.2017 07:00:00 6,7 3,8 3,6 4 2 - - NNE 1027,6 10 0,0
17.11.2017 06:00:00 7,3 4,0 4,3 8 4 7 4 N 1027,4 10 0,0
17.11.2017 05:00:00 7,4 3,6 3,8 5 3 7 4 NNW 1027,0 10 0,0
17.11.2017 04:00:00 7,6 3,9 5,1 8 4 - - N 1026,9 10 0,0
17.11.2017 03:00:00 8,0 3,6 6,2 13 7 18 10 N 1026,7 10 0,0
17.11.2017 02:00:00 8,7 4,6 7,7 11 6 18 10 N 1026,2 10 0,0
17.11.2017 01:00:00 9,4 5,2 8,3 15 8 - - N 1025,8 10 0,0
17.11.2017 00:00:00 10,0 6,2 9,2 15 8 22 12 N 1025,5 10 0,0
16.11.2017 23:00:00 9,7 8,7 9,4 5 3 14 8 N 1025,0 10 0,1
16.11.2017 22:00:00 9,9 8,2 9,6 21 11 - - N 1024,7 10 0,0
16.11.2017 21:00:00 11,1 9,6 10,5 24 13 43 23 WNW 1023,9 7 1,0
16.11.2017 20:00:00 10,9 10,1 10,2 18 10 25 14 WSW 1023,5 4,6 0,0
16.11.2017 19:00:00 11,0 10,0 10,1 18 10 - - WSW 1023,1 7 0,0
16.11.2017 18:00:00 11,2 10,2 10,7 21 11 29 16 SW 1022,7 7 0,0
16.11.2017 17:00:00 11,3 10,2 10,7 21 11 25 14 WSW 1022,5 7 0,0
16.11.2017 16:00:00 11,5 10,3 11,1 18 10 - - SW 1022,2 6 0,0
16.11.2017 15:00:00 11,6 10,3 11,2 18 10 22 12 SW 1022,0 7 0,0
16.11.2017 14:00:00 11,2 10,3 11,2 18 10 22 12 SSW 1022,3 5 0,0
16.11.2017 13:00:00 10,8 9,9 10,8 21 11 - - SW 1022,6 4,6 0,0
16.11.2017 12:00:00 10,4 9,6 10,5 18 10 25 14 SSW 1022,7 3,3 0,0
16.11.2017 11:00:00 10,0 9,3 10,0 21 11 25 14 SW 1023,0 3,2 0,0
16.11.2017 10:00:00 9,5 8,8 9,4 21 11 - - SSW 1022,8 3,2 0,2
16.11.2017 09:00:00 9,4 8,6 9,2 22 12 29 16 SSW 1022,8 3,3 0,0
16.11.2017 08:00:00 9,4 8,6 9,2 22 12 25 14 SSW 1022,3 3,9 0,0
16.11.2017 07:00:00 9,3 8,5 9,0 22 12 - - S 1022,1 3,4 0,0
16.11.2017 06:00:00 9,1 8,4 8,9 22 12 25 14 S 1022,2 3,3 0,0
16.11.2017 05:00:00 9,2 8,5 9,0 21 11 25 14 S 1022,5 3,2 0,0
16.11.2017 04:00:00 9,3 8,6 9,0 18 10 - - SSW 1023,1 3,6 0,0
16.11.2017 03:00:00 9,5 8,8 9,2 21 11 25 14 S 1023,4 3,2 0,0
16.11.2017 02:00:00 9,5 9,0 9,3 21 11 22 12 SSW 1023,6 2,5 0,0
16.11.2017 01:00:00 9,5 9,1 9,4 21 11 - - SSW 1023,9 2,3 0,0
16.11.2017 00:00:00 9,4 9,1 9,4 21 11 25 14 S 1024,2 2,4 0,0
15.11.2017 23:00:00 9,6 9,2 9,6 18 10 25 14 S 1024,2 2,2 0,0
15.11.2017 22:00:00 9,8 9,4 9,6 16 9 - - S 1024,5 2,6 0,0
15.11.2017 21:00:00 9,9 9,5 9,6 13 7 18 10 SSW 1024,6 2,4 0,0
15.11.2017 20:00:00 10,0 9,5 9,8 16 9 22 12 S 1024,5 2,4 0,0
15.11.2017 19:00:00 10,5 9,8 10,3 16 9 - - S 1024,6 3,1 0,0
15.11.2017 18:00:00 11,1 10,3 10,9 11 6 14 8 S 1024,6 3,8 0,0
15.11.2017 17:00:00 11,1 10,1 10,7 5 3 7 4 WSW 1024,8 7 0,0
15.11.2017 16:00:00 11,4 10,5 11,3 9 5 - - SW 1024,8 6 0,0
15.11.2017 15:00:00 11,5 10,4 11,6 13 7 14 8 SSW 1024,7 6 0,0
15.11.2017 14:00:00 11,5 10,6 11,7 11 6 14 8 SW 1024,7 5 0,0
15.11.2017 13:00:00 11,4 10,6 11,9 13 7 - - SSW 1025,0 4,7 0,0
15.11.2017 12:00:00 10,7 10,3 10,8 16 9 18 10 SW 1025,3 3,4 0,0
15.11.2017 11:00:00 10,4 10,0 10,4 15 8 25 14 SW 1025,3 2,6 0,0
15.11.2017 10:00:00 10,0 9,7 9,9 18 10 - - SSW 1024,9 2,1 0,0
15.11.2017 09:00:00 9,8 9,4 9,6 21 11 25 14 SSW 1024,9 1,4 0,2
15.11.2017 08:00:00 9,6 9,3 9,5 15 8 22 12 SSW 1024,7 1,7 0,0
15.11.2017 07:00:00 9,6 9,2 9,5 16 9 - - SSW 1024,3 2,3 0,1
15.11.2017 06:00:00 9,6 9,2 9,5 18 10 25 14 SSW 1024,0 2,0 0,2
15.11.2017 05:00:00 9,5 9,0 9,4 21 11 25 14 SSW 1024,0 2,2 0,0
15.11.2017 04:00:00 9,5 9,0 9,4 22 12 - - SSW 1024,1 2,5 0,0
15.11.2017 03:00:00 9,5 9,0 9,4 21 11 25 14 SSW 1024,4 2,7 0,0
15.11.2017 02:00:00 9,5 9,0 9,4 22 12 25 14 SSW 1024,5 2,7 0,0
15.11.2017 01:00:00 9,6 9,0 9,4 21 11 - - SSW 1024,4 2,9 0,0
15.11.2017 00:00:00 9,6 8,9 9,3 21 11 25 14 SSW 1024,5 3,3 0,0
14.11.2017 23:00:00 9,5 8,9 9,3 18 10 25 14 SSW 1024,5 3,5 0,0
14.11.2017 22:00:00 9,5 8,8 9,3 22 12 - - SSW 1024,4 5 0,0
14.11.2017 21:00:00 9,2 8,7 9,0 22 12 25 14 SSW 1024,4 5 0,0
14.11.2017 20:00:00 9,2 8,8 9,0 21 11 29 16 SSW 1024,3 3,7 0,0
14.11.2017 19:00:00 9,1 8,7 9,0 24 13 - - SSW 1024,1 3,1 0,1
14.11.2017 18:00:00 9,1 8,6 9,0 24 13 29 16 SSW 1023,8 2,6 0,1
14.11.2017 17:00:00 9,1 8,3 8,9 24 13 29 16 SW 1023,7 7 0,0
14.11.2017 16:00:00 9,2 8,0 9,1 26 14 - - SW 1023,4 10 0,0
14.11.2017 15:00:00 9,5 7,9 9,2 29 16 40 21 SW 1023,3 10 0,0
14.11.2017 14:00:00 9,4 7,1 9,2 31 17 36 19 SW 1023,2 10 0,0
14.11.2017 13:00:00 8,8 6,7 8,7 34 18 - - SW 1023,4 10 0,0
14.11.2017 12:00:00 8,2 6,0 8,1 31 17 40 21 SSW 1023,7 10 0,0
14.11.2017 11:00:00 7,8 5,2 7,5 31 17 36 19 SSW 1024,2 10 0,0
14.11.2017 10:00:00 7,3 4,7 7,1 35 19 - - SSW 1023,8 10 0,0
14.11.2017 09:00:00 6,5 4,1 6,0 35 19 40 21 SSW 1023,7 10 0,0
14.11.2017 08:00:00 6,2 4,1 5,8 29 16 36 19 SSW 1023,8 10 0,0
14.11.2017 07:00:00 6,4 4,6 5,9 26 14 - - SW 1023,5 10 0,0
14.11.2017 06:00:00 6,4 5,0 5,7 24 13 29 16 SW 1023,3 10 0,0
14.11.2017 05:00:00 6,8 4,8 6,2 24 13 29 16 SW 1023,6 10 0,0
14.11.2017 04:00:00 7,1 4,9 6,6 24 13 - - SW 1024,0 10 0,0
14.11.2017 03:00:00 8,5 3,9 7,0 18 10 25 14 W 1024,3 10 0,0
14.11.2017 02:00:00 8,2 3,9 6,7 16 9 22 12 W 1024,4 10 0,0
14.11.2017 01:00:00 7,9 4,0 6,4 13 7 - - WNW 1024,5 10 0,0
14.11.2017 00:00:00 7,7 4,8 6,7 8 4 11 6 WNW 1024,6 10 0,0
13.11.2017 23:00:00 7,6 4,5 6,4 13 7 22 12 NW 1024,5 10 0,0
13.11.2017 22:00:00 6,9 3,5 4,2 11 6 - - NW 1024,4 10 0,0
13.11.2017 21:00:00 6,6 2,9 3,1 8 4 11 6 NW 1024,2 10 0,0
13.11.2017 20:00:00 7,1 4,2 5,1 9 5 11 6 NNW 1024,0 10 0,0
13.11.2017 19:00:00 7,8 3,4 6,6 13 7 - - NNW 1023,9 10 0,0
13.11.2017 18:00:00 8,0 3,9 6,7 15 8 22 12 NNW 1023,4 10 0,4

tt = Température de l'air
td = dewpoint
tt 5cm = Température de l'air 5cm
ff = Vitesse du vent
fx = gusts
dd = Direction du vent
ppp = reduced air pressure
vv = visibility
rr = Quantités de précipitations

stations d'obs. à proximité